• en France
  • Liste des pays
  • À 7 jours
  • Température de l'eau
  • Carte satellitaire
  • Carte météo
  • Widgets météo
  • user-avatar
    Se connecter

    Météo par heure à Brest

    Ce jour, 19 Juin, Mardi

    Heure Température Précipitation Vent Pression Humidité
    00:00 +20°C° 0 mm 1 m/s 750 mmHg 80%
    01:00 +19°C° 0 mm 1 m/s 750 mmHg 82%
    02:00 +19°C° 0 mm 1 m/s 750 mmHg 84%
    03:00 +19°C° 0 mm 1 m/s 750 mmHg 85%
    04:00 +18°C° 0 mm 1 m/s 751 mmHg 87%
    05:00 +18°C° 0 mm 1 m/s 751 mmHg 89%
    06:00 +19°C° 0 mm 2 m/s 751 mmHg 83%
    07:00 +21°C° 0 mm 2 m/s 751 mmHg 78%
    08:00 +24°C° 0 mm 1 m/s 751 mmHg 70%
    09:00 +25°C° 0,2 mm 2 m/s 751 mmHg 65%
    10:00 +26°C° 0,2 mm 3 m/s 751 mmHg 61%
    11:00 +27°C° 0,2 mm 3 m/s 751 mmHg 56%
    12:00 +28°C° 0 mm 4 m/s 751 mmHg 54%
    13:00 +28°C° 0 mm 4 m/s 751 mmHg 51%
    14:00 +29°C° 0 mm 5 m/s 751 mmHg 50%
    15:00 +28°C° 0 mm 5 m/s 751 mmHg 51%
    16:00 +28°C° 0 mm 5 m/s 751 mmHg 52%
    17:00 +27°C° 0 mm 5 m/s 751 mmHg 53%
    18:00 +26°C° 0 mm 4 m/s 751 mmHg 59%
    19:00 +25°C° 0 mm 3 m/s 751 mmHg 64%
    20:00 +22°C° 0 mm 3 m/s 751 mmHg 70%
    21:00 +21°C° 0 mm 2 m/s 751 mmHg 74%
    22:00 +20°C° 0 mm 2 m/s 752 mmHg 78%
    23:00 +18°C° 0 mm 2 m/s 752 mmHg 82%

    Demain, 20 Juin, Mercredi

    Heure Température Précipitation Vent Pression Humidité
    00:00 +18°C° 0 mm 2 m/s 753 mmHg 86%
    01:00 +17°C° 0 mm 2 m/s 753 mmHg 89%
    02:00 +18°C° 0 mm 1 m/s 753 mmHg 92%
    03:00 +16°C° 0 mm 1 m/s 753 mmHg 92%
    04:00 +16°C° 0 mm 1 m/s 753 mmHg 92%
    05:00 +16°C° 0 mm 1 m/s 753 mmHg 92%
    06:00 +18°C° 0 mm 2 m/s 753 mmHg 84%
    07:00 +20°C° 0 mm 2 m/s 754 mmHg 76%
    08:00 +22°C° 0 mm 3 m/s 754 mmHg 69%
    09:00 +24°C° 0 mm 3 m/s 754 mmHg 65%
    10:00 +25°C° 0 mm 4 m/s 754 mmHg 61%
    11:00 +26°C° 0 mm 4 m/s 754 mmHg 58%
    12:00 +26°C° 0 mm 4 m/s 754 mmHg 56%
    13:00 +27°C° 0 mm 4 m/s 754 mmHg 54%
    14:00 +27°C° 0 mm 4 m/s 753 mmHg 53%
    15:00 +27°C° 0 mm 4 m/s 753 mmHg 52%
    16:00 +27°C° 0 mm 4 m/s 753 mmHg 52%
    17:00 +27°C° 0 mm 3 m/s 752 mmHg 51%
    18:00 +26°C° 0 mm 3 m/s 752 mmHg 57%
    19:00 +25°C° 0 mm 2 m/s 752 mmHg 62%
    20:00 +23°C° 0 mm 1 m/s 752 mmHg 67%
    21:00 +22°C° 0 mm 1 m/s 752 mmHg 69%
    22:00 +21°C° 0 mm 1 m/s 752 mmHg 71%
    23:00 +18°C° 0 mm 0 m/s 752 mmHg 73%

    Après-demain, 21 Juin, Jeudi

    Heure Température Précipitation Vent Pression Humidité
    00:00 +19°C° 0 mm 1 m/s 752 mmHg 76%
    01:00 +19°C° 0 mm 1 m/s 752 mmHg 78%
    02:00 +18°C° 0 mm 1 m/s 752 mmHg 81%
    03:00 +17°C° 0 mm 2 m/s 751 mmHg 83%
    04:00 +17°C° 0 mm 2 m/s 751 mmHg 85%
    05:00 +17°C° 0 mm 2 m/s 751 mmHg 87%
    06:00 +19°C° 0 mm 2 m/s 751 mmHg 81%
    07:00 +21°C° 0 mm 2 m/s 750 mmHg 75%
    08:00 +24°C° 0 mm 3 m/s 750 mmHg 69%
    09:00 +25°C° 0,1 mm 3 m/s 750 mmHg 65%
    10:00 +27°C° 0,1 mm 4 m/s 749 mmHg 61%
    11:00 +28°C° 0,1 mm 4 m/s 749 mmHg 57%
    12:00 +28°C° 0,1 mm 4 m/s 748 mmHg 56%
    13:00 +29°C° 0,1 mm 4 m/s 747 mmHg 55%
    14:00 +30°C° 0,1 mm 5 m/s 746 mmHg 53%
    15:00 +29°C° 0,3 mm 5 m/s 745 mmHg 58%
    16:00 +28°C° 0,3 mm 5 m/s 745 mmHg 64%
    17:00 +28°C° 0,3 mm 5 m/s 744 mmHg 69%
    18:00 +27°C° 0,5 mm 5 m/s 743 mmHg 74%
    19:00 +26°C° 0,5 mm 4 m/s 742 mmHg 80%
    20:00 +25°C° 0,5 mm 4 m/s 742 mmHg 85%
    21:00 +23°C° 1,1 mm 4 m/s 742 mmHg 87%
    22:00 +22°C° 1,1 mm 4 m/s 741 mmHg 88%
    23:00 +21°C° 1,1 mm 4 m/s 741 mmHg 90%

    22 Juin, Vendredi

    Heure Température Précipitation Vent Pression Humidité
    00:00 +20°C° 0,4 mm 5 m/s 742 mmHg 90%
    01:00 +19°C° 0,4 mm 6 m/s 742 mmHg 90%
    02:00 +17°C° 0,4 mm 7 m/s 742 mmHg 91%
    03:00 +15°C° 0,4 mm 6 m/s 743 mmHg 90%
    04:00 +14°C° 0,4 mm 6 m/s 744 mmHg 90%
    05:00 +11°C° 0,4 mm 6 m/s 744 mmHg 90%
    06:00 +11°C° 0,1 mm 6 m/s 745 mmHg 85%
    07:00 +11°C° 0,1 mm 6 m/s 745 mmHg 81%
    08:00 +11°C° 0,1 mm 6 m/s 746 mmHg 76%
    09:00 +14°C° 0 mm 6 m/s 746 mmHg 69%
    10:00 +15°C° 0 mm 6 m/s 746 mmHg 62%
    11:00 +16°C° 0 mm 6 m/s 746 mmHg 55%
    12:00 +17°C° 0 mm 6 m/s 746 mmHg 52%
    13:00 +19°C° 0 mm 6 m/s 746 mmHg 48%
    14:00 +18°C° 0 mm 7 m/s 745 mmHg 45%
    15:00 +19°C° 0 mm 6 m/s 745 mmHg 47%
    16:00 +17°C° 0 mm 6 m/s 746 mmHg 49%
    17:00 +17°C° 0 mm 6 m/s 746 mmHg 51%
    18:00 +16°C° 0 mm 5 m/s 746 mmHg 56%
    19:00 +15°C° 0 mm 5 m/s 746 mmHg 60%
    20:00 +14°C° 0 mm 4 m/s 746 mmHg 65%
    21:00 +13°C° 0 mm 4 m/s 746 mmHg 68%
    22:00 +12°C° 0 mm 4 m/s 747 mmHg 72%
    23:00 +11°C° 0 mm 3 m/s 747 mmHg 76%

    23 Juin, Samedi

    Heure Température Précipitation Vent Pression Humidité
    00:00 +10°C° 0 mm 4 m/s 747 mmHg 78%
    01:00 +10°C° 0 mm 4 m/s 747 mmHg 81%
    02:00 +10°C° 0 mm 4 m/s 747 mmHg 84%
    03:00 +9°C° 0 mm 3 m/s 747 mmHg 85%
    04:00 +9°C° 0 mm 3 m/s 747 mmHg 86%
    05:00 +9°C° 0 mm 3 m/s 747 mmHg 87%
    06:00 +11°C° 0 mm 4 m/s 747 mmHg 79%
    07:00 +13°C° 0 mm 4 m/s 747 mmHg 72%
    08:00 +14°C° 0 mm 5 m/s 748 mmHg 64%
    09:00 +15°C° 0,3 mm 5 m/s 747 mmHg 63%
    10:00 +16°C° 0,3 mm 5 m/s 747 mmHg 62%
    11:00 +17°C° 0,3 mm 5 m/s 747 mmHg 62%
    12:00 +17°C° 0,5 mm 5 m/s 747 mmHg 63%
    13:00 +17°C° 0,5 mm 6 m/s 747 mmHg 64%
    14:00 +17°C° 0,5 mm 6 m/s 747 mmHg 65%
    15:00 +17°C° 0,4 mm 6 m/s 747 mmHg 64%
    16:00 +17°C° 0,4 mm 5 m/s 747 mmHg 64%
    17:00 +17°C° 0,4 mm 5 m/s 747 mmHg 64%
    18:00 +17°C° 0,2 mm 4 m/s 747 mmHg 69%
    19:00 +15°C° 0,2 mm 4 m/s 747 mmHg 74%
    20:00 +14°C° 0,2 mm 3 m/s 747 mmHg 79%
    21:00 +13°C° 0 mm 3 m/s 748 mmHg 82%
    22:00 +13°C° 0 mm 3 m/s 748 mmHg 84%
    23:00 +12°C° 0 mm 3 m/s 748 mmHg 87%

    24 Juin, Dimanche

    Heure Température Précipitation Vent Pression Humidité
    00:00 +11°C° 0 mm 3 m/s 748 mmHg 89%
    01:00 +11°C° 0 mm 3 m/s 748 mmHg 91%
    02:00 +10°C° 0 mm 3 m/s 748 mmHg 92%
    03:00 +10°C° 0 mm 2 m/s 748 mmHg 93%
    04:00 +9°C° 0 mm 2 m/s 749 mmHg 93%
    05:00 +9°C° 0 mm 2 m/s 749 mmHg 94%
    06:00 +12°C° 0 mm 2 m/s 749 mmHg 84%
    07:00 +14°C° 0 mm 2 m/s 749 mmHg 75%
    08:00 +15°C° 0 mm 2 m/s 750 mmHg 66%
    09:00 +17°C° 0 mm 2 m/s 750 mmHg 58%
    10:00 +18°C° 0 mm 2 m/s 750 mmHg 50%
    11:00 +20°C° 0 mm 2 m/s 750 mmHg 42%
    12:00 +20°C° 0 mm 2 m/s 750 mmHg 41%
    13:00 +21°C° 0 mm 3 m/s 750 mmHg 41%
    14:00 +22°C° 0 mm 3 m/s 750 mmHg 40%
    15:00 +21°C° 0,1 mm 3 m/s 750 mmHg 43%
    16:00 +21°C° 0,1 mm 2 m/s 750 mmHg 46%
    17:00 +21°C° 0,1 mm 2 m/s 750 mmHg 49%
    18:00 +20°C° 0,2 mm 2 m/s 750 mmHg 56%
    19:00 +18°C° 0,2 mm 2 m/s 750 mmHg 62%
    20:00 +18°C° 0,2 mm 1 m/s 750 mmHg 68%
    21:00 +16°C° 0 mm 1 m/s 750 mmHg 71%
    22:00 +15°C° 0 mm 1 m/s 750 mmHg 74%
    23:00 +14°C° 0 mm 1 m/s 751 mmHg 77%
    Voir plus